Tracking 19706 objects as of 16-Jun-2019
HD Live streaming from Space Station
objects crossing your sky now

FENGYUN 1C DEB

Track FENGYUN 1C DEB now!
10-day predictions


NORAD ID: 30730
Int'l Code: 1999-025ASQ
Perigee: 781.4 km
Apogee: 911.1 km
Inclination: 98.8 °
Period: 101.7 minutes
Semi major axis: 7217 km
RCS: 0.031 m2 (small)
Launch date: May 10, 1999
Source: People's Republic of China (PRC)
Launch site: Taiyaun Space Center, China (TSC)

Note: This is SATELLITE DEBRIS
aabbcc
Your satellite tracking list
Your tracking list is empty




NASA's NSSDC Master Catalog

Two Line Element Set (TLE):
1 30730U 99025ASQ 19166.68274903  .00000248  00000-0  14275-3 0  9996
2 30730  98.8455 209.6682 0089882  26.4630  94.4655 14.15935385633811
Source of the keplerian elements: AFSPC